North Platte, NE

10:31 AM CDT on July 26, 2017 (GMT -0500)
North Platte Regional-Bird

Weather History for KLBF - July, 2013

Change the Weather History Date:

Saturday, July 20, 2013

  Actual Average Record
Temperature  
Mean Temperature 75 °F 75 °F  
Max Temperature 90 °F 89 °F 107 °F (1934)
Min Temperature 59 °F 61 °F 45 °F (1877)
Degree Days  
Heating Degree Days 0 0  
Month to date heating degree days 4 0  
Since 1 June heating degree days 51 51  
Since 1 July heating degree days 4 0  
Cooling Degree Days 10 10  
Month to date cooling degree days 235 186  
Year to date cooling degree days 462 352  
Since 1 June cooling degree days 414 324  
Growing Degree Days 24 (Base 50)    
Moisture  
Dew Point 60 °F    
Average Humidity 64    
Maximum Humidity 87    
Minimum Humidity 41    
Precipitation  
Precipitation 0.54 in 0.11 in 1.68 in (1928)
Month to date precipitation 0.61 1.94  
Year to date precipitation 8.72 12.80  
Snow  
Snow 0.00 in 0.00 in 0.00 in (2002)
Month to date snowfall 0.0 0.0  
Since 1 June snowfall T 0.0  
Since 1 July snowfall 0.0 0.0  
Snow Depth 0.00 in    
Sea Level Pressure  
Sea Level Pressure 29.91 in    
Wind  
Wind Speed 9 mph (East)    
Max Wind Speed 33 mph    
Max Gust Speed 41 mph    
Visibility 9 miles    
Events Rain , Thunderstorm    
T = Trace of Precipitation, MM = Missing Value Source: NWS Daily Summary

Daily Weather History Graph

Daily Weather History Graph

Search for Another Location

Airport or City:

Trip Planner

Search our weather history database for the weather conditions in past years. The results will help you decide how hot, cold, wet, or windy it might be!

Date:

Astronomy

Jul. 20, 2013 Rise Set
Actual Time 6:27 AM CDT 9:10 PM CDT
Civil Twilight 5:55 AM CDT 9:42 PM CDT
Nautical Twilight 5:15 AM CDT 10:22 PM CDT
Astronomical Twilight 4:28 AM CDT 11:08 PM CDT
Moon 7:15 PM CDT (7/20) 4:09 AM CDT (7/20)
Length of Visible Light 15h 46m
Length of Day
14h 42m
Waxing Gibbous, 94% of the Moon is Illuminated
Jul 20
Waxing Gibbous
Jul 22
Full
Jul 29
Last Quarter
Aug 6
New
Aug 14
First Quarter

Hourly Weather History & Observations

Time (CDT) Temp. Heat Index Dew Point Humidity Pressure Visibility Wind Dir Wind Speed Gust Speed Precip Events Conditions
12:53 AM 66.9 °F - 55.9 °F 68% 29.95 in 10.0 mi Calm Calm - N/A   Clear
1:53 AM 63.0 °F - 57.0 °F 81% 29.94 in 10.0 mi North 3.5 mph - N/A   Clear
2:53 AM 62.1 °F - 55.9 °F 80% 29.92 in 10.0 mi Calm Calm - N/A   Clear
3:53 AM 62.1 °F - 55.9 °F 80% 29.90 in 10.0 mi East 3.5 mph - N/A   Clear
4:53 AM 61.0 °F - 55.0 °F 81% 29.91 in 10.0 mi SE 3.5 mph - N/A   Clear
5:53 AM 60.1 °F - 55.9 °F 86% 29.91 in 10.0 mi South 3.5 mph - N/A   Clear
6:53 AM 59.0 °F - 55.9 °F 90% 29.91 in 10.0 mi Calm Calm - N/A   Clear
7:53 AM 64.9 °F - 57.9 °F 78% 29.90 in 10.0 mi Calm Calm - N/A   Clear
8:53 AM 71.1 °F - 59.0 °F 66% 29.92 in 10.0 mi Calm Calm - N/A   Clear
9:53 AM 80.1 °F 80.7 °F 59.0 °F 48% 29.92 in 10.0 mi NNE 8.1 mph - N/A   Clear
10:53 AM 82.9 °F 83.3 °F 61.0 °F 47% 29.91 in 10.0 mi ENE 8.1 mph - N/A   Clear
11:53 AM 84.0 °F 84.9 °F 63.0 °F 49% 29.92 in 10.0 mi East 8.1 mph - N/A   Mostly Cloudy
12:53 PM 86.0 °F 86.8 °F 63.0 °F 46% 29.89 in 10.0 mi SE 11.5 mph 16.1 mph N/A   Mostly Cloudy
1:53 PM 87.1 °F 87.8 °F 63.0 °F 44% 29.88 in 10.0 mi East 6.9 mph - N/A   Partly Cloudy
2:53 PM 88.0 °F 88.4 °F 62.1 °F 42% 29.87 in 10.0 mi East 10.4 mph 19.6 mph N/A   Partly Cloudy
3:53 PM 90.0 °F 90.6 °F 63.0 °F 40% 29.84 in 10.0 mi ESE 18.4 mph 23.0 mph N/A   Clear
4:53 PM 87.1 °F 88.3 °F 64.0 °F 46% 29.82 in 10.0 mi SE 17.3 mph - N/A   Clear
5:53 PM 84.0 °F 84.9 °F 63.0 °F 49% 29.82 in 10.0 mi ESE 17.3 mph - N/A   Clear
6:53 PM 82.9 °F 84.0 °F 63.0 °F 51% 29.82 in 10.0 mi ESE 18.4 mph 24.2 mph N/A   Clear
7:53 PM 79.0 °F - 64.9 °F 62% 29.80 in 10.0 mi ESE 15.0 mph - N/A   Clear
8:53 PM 75.9 °F - 64.9 °F 69% 29.84 in 10.0 mi East 9.2 mph - N/A   Clear
9:53 PM 75.0 °F - 64.9 °F 71% 29.92 in 10.0 mi NNE 10.4 mph 18.4 mph N/A   Mostly Cloudy
10:08 PM 64.4 °F - 57.2 °F 77% 30.05 in 10.0 mi NNE 26.5 mph 41.4 mph 0.00 in Rain , Thunderstorm Light Rain
10:34 PM 60.8 °F - 57.2 °F 88% 30.06 in 2.0 mi NNE 19.6 mph 29.9 mph 0.26 in Rain , Thunderstorm Heavy Thunderstorms and Rain
10:41 PM 60.8 °F - 57.2 °F 88% 30.07 in 2.0 mi NE 17.3 mph 28.8 mph 0.46 in Rain , Thunderstorm Heavy Thunderstorms and Rain
10:45 PM 62.6 °F - 57.2 °F 82% 30.07 in 3.0 mi NE 16.1 mph 27.6 mph 0.48 in Rain , Thunderstorm Thunderstorms and Rain
10:53 PM 61.0 °F - 57.9 °F 90% 30.00 in 6.0 mi NE 12.7 mph 21.9 mph 0.49 in Rain , Thunderstorm Rain
11:31 PM 60.8 °F - 57.2 °F 88% 30.03 in 10.0 mi East 15.0 mph 25.3 mph 0.05 in Rain Light Rain
11:53 PM 62.1 °F - 57.0 °F 84% 29.88 in 10.0 mi ESE 24.2 mph 36.8 mph 0.05 in Rain Light Rain